Time,TemperatureF,DewpointF,PressureIn,WindDirection,WindDirectionDegrees,WindSpeedMPH,WindSpeedGustMPH,Humidity,HourlyPrecipIn,Conditions,Clouds,dailyrainin,SoftwareType,DateUTC
2013-06-08 00:01:00,57.0,55.0,29.80,North,10,8.1,8.1,93,0.02,-RA,,0.02,WeatherDisplay:10.37,2013-06-08 04:01:00,
2013-06-08 00:02:00,57.0,55.0,29.80,North,10,8.1,8.1,93,0.02,-RA,,0.02,WeatherDisplay:10.37,2013-06-08 04:02:00,
2013-06-08 00:07:00,57.0,55.0,29.80,North,10,8.1,8.1,93,0.02,-RA,,0.02,WeatherDisplay:10.37,2013-06-08 04:07:00,
2013-06-08 00:12:00,56.8,54.8,29.80,North,10,8.1,8.1,93,0.02,-RA,,0.02,WeatherDisplay:10.37,2013-06-08 04:12:00,
2013-06-08 00:17:00,56.8,54.8,29.80,North,10,8.1,8.1,93,0.02,-RA,,0.02,WeatherDisplay:10.37,2013-06-08 04:17:00,
2013-06-08 00:22:00,56.8,54.8,29.80,North,10,8.1,8.1,93,0.02,-RA,,0.02,WeatherDisplay:10.37,2013-06-08 04:22:00,
2013-06-08 00:27:00,56.8,54.8,29.80,North,10,8.1,8.1,93,0.02,-RA,,0.02,WeatherDisplay:10.37,2013-06-08 04:27:00,
2013-06-08 00:32:00,56.8,54.8,29.77,North,10,8.1,8.1,93,0.02,-RA,,0.02,WeatherDisplay:10.37,2013-06-08 04:32:00,
2013-06-08 00:37:00,56.8,54.8,29.77,North,10,8.1,8.1,93,0.02,-RA,,0.02,WeatherDisplay:10.37,2013-06-08 04:37:00,
2013-06-08 00:42:00,56.7,54.7,29.77,North,10,8.1,8.1,93,0.02,-RA,,0.02,WeatherDisplay:10.37,2013-06-08 04:42:00,
2013-06-08 00:47:00,56.7,54.7,29.77,North,10,8.1,8.1,93,0.02,-RA,,0.02,WeatherDisplay:10.37,2013-06-08 04:47:00,
2013-06-08 00:52:00,56.7,54.7,29.77,North,10,8.1,8.1,93,0.02,-RA,,0.02,WeatherDisplay:10.37,2013-06-08 04:52:00,
2013-06-08 00:57:00,56.7,54.7,29.77,North,10,8.1,8.1,93,0.02,-RA,,0.02,WeatherDisplay:10.37,2013-06-08 04:57:00,
2013-06-08 01:02:00,56.5,54.5,29.77,North,360,8.1,8.1,93,0.08,-RA,,0.10,WeatherDisplay:10.37,2013-06-08 05:02:00,
2013-06-08 01:07:00,56.5,54.5,29.77,North,360,8.1,8.1,93,0.08,-RA,,0.10,WeatherDisplay:10.37,2013-06-08 05:07:00,
2013-06-08 01:12:00,56.5,54.5,29.77,North,360,8.1,8.1,93,0.08,-RA,,0.10,WeatherDisplay:10.37,2013-06-08 05:12:00,
2013-06-08 01:17:00,56.3,54.3,29.77,North,360,8.1,8.1,93,0.08,-RA,,0.10,WeatherDisplay:10.37,2013-06-08 05:17:00,
2013-06-08 01:22:00,56.3,54.3,29.77,North,360,8.1,8.1,93,0.08,-RA,,0.10,WeatherDisplay:10.37,2013-06-08 05:22:00,
2013-06-08 01:27:00,56.3,54.3,29.77,North,360,8.1,8.1,93,0.08,-RA,,0.10,WeatherDisplay:10.37,2013-06-08 05:27:00,
2013-06-08 01:32:00,56.3,54.3,29.77,North,360,8.1,8.1,93,0.08,-RA,,0.10,WeatherDisplay:10.37,2013-06-08 05:32:00,
2013-06-08 01:37:00,56.3,54.3,29.77,North,360,8.1,8.1,93,0.08,-RA,,0.10,WeatherDisplay:10.37,2013-06-08 05:37:00,
2013-06-08 01:42:00,56.3,54.3,29.77,North,360,8.1,8.1,93,0.08,-RA,,0.10,WeatherDisplay:10.37,2013-06-08 05:42:00,
2013-06-08 01:47:00,56.3,54.3,29.77,North,360,8.1,8.1,93,0.08,-RA,,0.10,WeatherDisplay:10.37,2013-06-08 05:47:00,
2013-06-08 01:52:00,56.3,54.3,29.77,North,360,8.1,8.1,93,0.08,-RA,,0.10,WeatherDisplay:10.37,2013-06-08 05:52:00,
2013-06-08 01:57:00,56.3,54.3,29.77,North,360,8.1,8.1,93,0.08,-RA,,0.10,WeatherDisplay:10.37,2013-06-08 05:57:00,
2013-06-08 02:02:00,56.1,53.8,29.77,North,350,9.2,9.2,92,0.11,-RA,,0.21,WeatherDisplay:10.37,2013-06-08 06:02:00,
2013-06-08 02:07:00,56.1,53.8,29.77,North,350,9.2,9.2,92,0.11,-RA,,0.21,WeatherDisplay:10.37,2013-06-08 06:07:00,
2013-06-08 02:12:00,56.1,53.8,29.77,North,350,9.2,9.2,92,0.11,-RA,,0.21,WeatherDisplay:10.37,2013-06-08 06:12:00,
2013-06-08 02:17:00,56.1,53.8,29.77,North,350,9.2,9.2,92,0.11,-RA,,0.21,WeatherDisplay:10.37,2013-06-08 06:17:00,
2013-06-08 02:22:00,56.1,53.8,29.77,North,350,9.2,9.2,92,0.11,-RA,,0.21,WeatherDisplay:10.37,2013-06-08 06:22:00,
2013-06-08 02:27:00,55.9,53.6,29.77,North,350,9.2,9.2,92,0.11,-RA,,0.21,WeatherDisplay:10.37,2013-06-08 06:27:00,
2013-06-08 02:32:00,55.9,53.6,29.77,North,350,9.2,9.2,92,0.11,-RA,,0.21,WeatherDisplay:10.37,2013-06-08 06:32:00,
2013-06-08 02:37:00,55.9,53.6,29.77,North,350,9.2,9.2,92,0.11,-RA,,0.21,WeatherDisplay:10.37,2013-06-08 06:37:00,
2013-06-08 02:42:00,55.9,53.6,29.77,North,350,9.2,9.2,92,0.11,-RA,,0.21,WeatherDisplay:10.37,2013-06-08 06:42:00,
2013-06-08 02:47:00,55.9,53.6,29.77,North,350,9.2,9.2,92,0.11,-RA,,0.21,WeatherDisplay:10.37,2013-06-08 06:47:00,
2013-06-08 02:52:00,55.9,53.6,29.77,North,350,9.2,9.2,92,0.11,-RA,,0.21,WeatherDisplay:10.37,2013-06-08 06:52:00,
2013-06-08 02:57:00,55.9,53.6,29.77,North,350,9.2,9.2,92,0.11,-RA,,0.21,WeatherDisplay:10.37,2013-06-08 06:57:00,
2013-06-08 03:02:00,55.8,53.5,29.77,North,350,9.2,9.2,92,0.08,-RA,,0.29,WeatherDisplay:10.37,2013-06-08 07:02:00,
2013-06-08 03:07:00,55.8,53.5,29.77,North,350,9.2,9.2,92,0.08,-RA,,0.29,WeatherDisplay:10.37,2013-06-08 07:07:00,
2013-06-08 03:12:00,55.8,53.5,29.77,North,350,9.2,9.2,92,0.08,-RA,,0.29,WeatherDisplay:10.37,2013-06-08 07:12:00,
2013-06-08 03:17:00,55.8,53.5,29.77,North,350,9.2,9.2,92,0.08,-RA,,0.29,WeatherDisplay:10.37,2013-06-08 07:17:00,
2013-06-08 03:22:00,55.8,53.5,29.77,North,350,9.2,9.2,92,0.08,-RA,,0.29,WeatherDisplay:10.37,2013-06-08 07:22:00,
2013-06-08 03:27:00,55.8,53.5,29.77,North,350,9.2,9.2,92,0.08,-RA,,0.29,WeatherDisplay:10.37,2013-06-08 07:27:00,
2013-06-08 03:32:00,55.6,53.3,29.74,North,350,9.2,9.2,92,0.08,-RA,,0.29,WeatherDisplay:10.37,2013-06-08 07:32:00,
2013-06-08 03:37:00,55.6,53.3,29.74,North,350,9.2,9.2,92,0.08,-RA,,0.29,WeatherDisplay:10.37,2013-06-08 07:37:00,
2013-06-08 03:42:00,55.6,53.3,29.74,North,350,9.2,9.2,92,0.08,-RA,,0.29,WeatherDisplay:10.37,2013-06-08 07:42:00,
2013-06-08 03:47:00,55.4,53.1,29.74,North,350,9.2,9.2,92,0.08,-RA,,0.29,WeatherDisplay:10.37,2013-06-08 07:47:00,
2013-06-08 03:52:00,55.4,53.1,29.74,North,350,9.2,9.2,92,0.08,-RA,,0.29,WeatherDisplay:10.37,2013-06-08 07:52:00,
2013-06-08 03:57:00,55.4,53.1,29.74,North,350,9.2,9.2,92,0.08,-RA,,0.29,WeatherDisplay:10.37,2013-06-08 07:57:00,
2013-06-08 04:02:00,55.4,53.1,29.74,North,350,9.2,9.2,92,0.04,-RA,,0.33,WeatherDisplay:10.37,2013-06-08 08:02:00,
2013-06-08 04:07:00,55.4,53.1,29.74,North,350,9.2,9.2,92,0.04,-RA,,0.33,WeatherDisplay:10.37,2013-06-08 08:07:00,
2013-06-08 04:12:00,55.4,53.1,29.74,North,350,9.2,9.2,92,0.04,-RA,,0.33,WeatherDisplay:10.37,2013-06-08 08:12:00,
2013-06-08 04:17:00,55.4,53.1,29.74,North,360,10.4,10.4,92,0.04,-RA,,0.33,WeatherDisplay:10.37,2013-06-08 08:17:00,
2013-06-08 04:22:00,55.4,53.1,29.74,North,360,10.4,10.4,92,0.04,-RA,,0.33,WeatherDisplay:10.37,2013-06-08 08:22:00,
2013-06-08 04:27:00,55.4,53.1,29.74,North,360,10.4,10.4,92,0.04,-RA,,0.33,WeatherDisplay:10.37,2013-06-08 08:27:00,
2013-06-08 04:32:00,55.4,53.1,29.74,North,360,10.4,10.4,92,0.04,-RA,,0.33,WeatherDisplay:10.37,2013-06-08 08:32:00,
2013-06-08 04:37:00,55.4,53.1,29.74,North,360,10.4,10.4,92,0.04,-RA,,0.33,WeatherDisplay:10.37,2013-06-08 08:37:00,
2013-06-08 04:42:00,55.4,53.1,29.74,North,360,10.4,10.4,92,0.04,-RA,,0.33,WeatherDisplay:10.37,2013-06-08 08:42:00,
2013-06-08 04:47:00,55.4,53.1,29.74,North,360,10.4,10.4,92,0.04,-RA,,0.33,WeatherDisplay:10.37,2013-06-08 08:47:00,
2013-06-08 04:52:00,55.4,53.1,29.74,North,360,10.4,10.4,92,0.04,-RA,,0.33,WeatherDisplay:10.37,2013-06-08 08:52:00,
2013-06-08 04:57:00,55.4,53.1,29.74,North,360,10.4,10.4,92,0.04,-RA,,0.33,WeatherDisplay:10.37,2013-06-08 08:57:00,
2013-06-08 05:02:00,55.4,53.1,29.74,North,360,6.9,6.9,92,0.05,-RA,,0.38,WeatherDisplay:10.37,2013-06-08 09:02:00,
2013-06-08 05:07:00,55.4,53.1,29.74,North,360,6.9,6.9,92,0.05,-RA,,0.38,WeatherDisplay:10.37,2013-06-08 09:07:00,
2013-06-08 05:12:00,55.4,53.1,29.74,North,360,6.9,6.9,92,0.05,-RA,,0.38,WeatherDisplay:10.37,2013-06-08 09:12:00,
2013-06-08 05:17:00,55.4,53.1,29.74,North,360,6.9,6.9,92,0.05,-RA,,0.38,WeatherDisplay:10.37,2013-06-08 09:17:00,
2013-06-08 05:22:00,55.6,53.3,29.74,North,360,6.9,6.9,92,0.05,-RA,,0.38,WeatherDisplay:10.37,2013-06-08 09:22:00,
2013-06-08 05:27:00,55.6,53.3,29.74,North,360,6.9,6.9,92,0.05,-RA,,0.38,WeatherDisplay:10.37,2013-06-08 09:27:00,
2013-06-08 05:32:00,55.6,53.3,29.74,North,360,6.9,6.9,92,0.05,-RA,,0.38,WeatherDisplay:10.37,2013-06-08 09:32:00,
2013-06-08 05:37:00,55.6,53.3,29.74,North,360,6.9,6.9,92,0.05,-RA,,0.38,WeatherDisplay:10.37,2013-06-08 09:37:00,
2013-06-08 05:42:00,55.6,53.3,29.74,North,360,6.9,6.9,92,0.05,-RA,,0.38,WeatherDisplay:10.37,2013-06-08 09:42:00,
2013-06-08 05:47:00,55.6,53.3,29.77,North,360,6.9,6.9,92,0.05,-RA,,0.38,WeatherDisplay:10.37,2013-06-08 09:47:00,
2013-06-08 05:52:00,55.8,53.5,29.77,North,360,6.9,6.9,92,0.05,-RA,,0.38,WeatherDisplay:10.37,2013-06-08 09:52:00,
2013-06-08 05:57:00,55.8,53.5,29.77,North,360,6.9,6.9,92,0.05,-RA,,0.38,WeatherDisplay:10.37,2013-06-08 09:57:00,
2013-06-08 06:02:00,55.8,53.5,29.77,North,360,6.9,6.9,92,0.05,-RA,,0.43,WeatherDisplay:10.37,2013-06-08 10:02:00,
2013-06-08 06:07:00,55.8,53.5,29.77,North,360,6.9,6.9,92,0.05,-RA,,0.43,WeatherDisplay:10.37,2013-06-08 10:07:00,
2013-06-08 06:12:00,55.8,53.5,29.77,North,360,6.9,6.9,92,0.05,-RA,,0.43,WeatherDisplay:10.37,2013-06-08 10:12:00,
2013-06-08 06:17:00,55.8,52.6,29.77,North,350,6.9,6.9,89,0.05,OVC,,0.43,WeatherDisplay:10.37,2013-06-08 10:17:00,
2013-06-08 06:22:00,55.8,52.6,29.77,North,350,6.9,6.9,89,0.05,OVC,,0.43,WeatherDisplay:10.37,2013-06-08 10:22:00,
2013-06-08 06:27:00,55.8,52.6,29.77,North,350,6.9,6.9,89,0.05,OVC,,0.43,WeatherDisplay:10.37,2013-06-08 10:27:00,
2013-06-08 06:32:00,55.9,52.7,29.77,North,350,6.9,6.9,89,0.05,OVC,,0.43,WeatherDisplay:10.37,2013-06-08 10:32:00,
2013-06-08 06:37:00,55.9,52.7,29.77,North,350,6.9,6.9,89,0.05,OVC,,0.43,WeatherDisplay:10.37,2013-06-08 10:37:00,
2013-06-08 06:42:00,55.9,52.7,29.77,North,350,6.9,6.9,89,0.05,OVC,,0.43,WeatherDisplay:10.37,2013-06-08 10:42:00,
2013-06-08 06:47:00,55.9,52.7,29.77,North,350,6.9,6.9,89,0.05,OVC,,0.43,WeatherDisplay:10.37,2013-06-08 10:47:00,
2013-06-08 06:52:00,55.9,52.7,29.77,North,350,6.9,6.9,89,0.05,OVC,,0.43,WeatherDisplay:10.37,2013-06-08 10:52:00,
2013-06-08 06:57:00,56.1,52.9,29.77,North,350,6.9,6.9,89,0.05,OVC,,0.43,WeatherDisplay:10.37,2013-06-08 10:57:00,
2013-06-08 07:02:00,56.1,52.9,29.80,North,350,6.9,6.9,89,0.00,OVC,,0.43,WeatherDisplay:10.37,2013-06-08 11:02:00,
2013-06-08 07:07:00,56.1,52.9,29.80,North,350,6.9,6.9,89,0.00,OVC,,0.43,WeatherDisplay:10.37,2013-06-08 11:07:00,
2013-06-08 07:12:00,56.3,53.1,29.80,North,350,6.9,6.9,89,0.00,OVC,,0.43,WeatherDisplay:10.37,2013-06-08 11:12:00,
2013-06-08 07:17:00,56.3,53.4,29.80,NNW,330,5.8,5.8,90,0.00,OVC,,0.43,WeatherDisplay:10.37,2013-06-08 11:17:00,
2013-06-08 07:22:00,56.3,53.4,29.80,NNW,330,5.8,5.8,90,0.00,OVC,,0.43,WeatherDisplay:10.37,2013-06-08 11:22:00,
2013-06-08 07:27:00,56.5,53.6,29.80,NNW,330,5.8,5.8,90,0.00,OVC,,0.43,WeatherDisplay:10.37,2013-06-08 11:27:00,
2013-06-08 07:32:00,56.7,53.8,29.80,NNW,330,5.8,5.8,90,0.00,OVC,,0.43,WeatherDisplay:10.37,2013-06-08 11:32:00,
2013-06-08 07:37:00,56.7,53.8,29.80,NNW,330,5.8,5.8,90,0.00,OVC,,0.43,WeatherDisplay:10.37,2013-06-08 11:37:00,
2013-06-08 07:42:00,56.7,53.8,29.80,NNW,330,5.8,5.8,90,0.00,OVC,,0.43,WeatherDisplay:10.37,2013-06-08 11:42:00,
2013-06-08 07:47:00,56.8,53.9,29.80,NNW,330,5.8,5.8,90,0.00,OVC,,0.43,WeatherDisplay:10.37,2013-06-08 11:47:00,
2013-06-08 07:52:00,56.8,53.9,29.80,NNW,330,5.8,5.8,90,0.00,OVC,,0.43,WeatherDisplay:10.37,2013-06-08 11:52:00,
2013-06-08 07:57:00,57.0,54.1,29.80,NNW,330,5.8,5.8,90,0.00,OVC,,0.43,WeatherDisplay:10.37,2013-06-08 11:57:00,
2013-06-08 08:02:00,57.2,54.3,29.80,NNW,330,5.8,5.8,90,0.00,OVC,,0.43,WeatherDisplay:10.37,2013-06-08 12:02:00,
2013-06-08 08:07:00,57.2,54.3,29.80,NNW,330,5.8,5.8,90,0.00,OVC,,0.43,WeatherDisplay:10.37,2013-06-08 12:07:00,
2013-06-08 08:12:00,57.4,54.5,29.80,NNW,330,5.8,5.8,90,0.00,OVC,,0.43,WeatherDisplay:10.37,2013-06-08 12:12:00,
2013-06-08 08:17:00,57.6,54.6,29.83,NNW,330,5.8,5.8,90,0.00,OVC,,0.43,WeatherDisplay:10.37,2013-06-08 12:17:00,
2013-06-08 08:22:00,57.6,54.6,29.83,NNW,330,5.8,5.8,90,0.00,OVC,,0.43,WeatherDisplay:10.37,2013-06-08 12:22:00,
2013-06-08 08:27:00,57.6,54.6,29.83,NNW,330,5.8,5.8,90,0.00,OVC,,0.43,WeatherDisplay:10.37,2013-06-08 12:27:00,
2013-06-08 08:32:00,57.7,54.8,29.83,NNW,330,5.8,5.8,90,0.00,OVC,,0.43,WeatherDisplay:10.37,2013-06-08 12:32:00,
2013-06-08 08:37:00,57.7,54.8,29.83,NNW,330,5.8,5.8,90,0.00,OVC,,0.43,WeatherDisplay:10.37,2013-06-08 12:37:00,
2013-06-08 08:42:00,57.9,55.0,29.83,NNW,330,5.8,5.8,90,0.00,OVC,,0.43,WeatherDisplay:10.37,2013-06-08 12:42:00,
2013-06-08 08:47:00,57.9,55.0,29.83,NNW,330,5.8,5.8,90,0.00,OVC,,0.43,WeatherDisplay:10.37,2013-06-08 12:47:00,
2013-06-08 08:52:00,57.9,55.0,29.83,NNW,330,5.8,5.8,90,0.00,OVC,,0.43,WeatherDisplay:10.37,2013-06-08 12:52:00,
2013-06-08 08:57:00,58.1,55.2,29.83,NNW,330,5.8,5.8,90,0.00,OVC,,0.43,WeatherDisplay:10.37,2013-06-08 12:57:00,
2013-06-08 09:02:00,58.3,52.1,29.83,WNW,300,5.8,5.8,80,0.00,OVC,,0.43,WeatherDisplay:10.37,2013-06-08 13:02:00,
2013-06-08 09:07:00,58.3,52.1,29.83,WNW,300,5.8,5.8,80,0.00,OVC,,0.43,WeatherDisplay:10.37,2013-06-08 13:07:00,
2013-06-08 09:12:00,58.5,52.3,29.83,WNW,300,5.8,5.8,80,0.00,OVC,,0.43,WeatherDisplay:10.37,2013-06-08 13:12:00,
2013-06-08 09:17:00,58.5,52.3,29.83,WNW,300,5.8,5.8,80,0.00,OVC,,0.43,WeatherDisplay:10.37,2013-06-08 13:17:00,
2013-06-08 09:22:00,58.5,52.3,29.83,WNW,300,5.8,5.8,80,0.00,OVC,,0.43,WeatherDisplay:10.37,2013-06-08 13:22:00,
2013-06-08 09:27:00,58.6,52.5,29.83,WNW,300,5.8,5.8,80,0.00,OVC,,0.43,WeatherDisplay:10.37,2013-06-08 13:27:00,
2013-06-08 09:32:00,58.8,52.7,29.83,WNW,300,5.8,5.8,80,0.00,OVC,,0.43,WeatherDisplay:10.37,2013-06-08 13:32:00,
2013-06-08 09:37:00,58.8,52.7,29.83,WNW,300,5.8,5.8,80,0.00,OVC,,0.43,WeatherDisplay:10.37,2013-06-08 13:37:00,
2013-06-08 09:42:00,58.8,52.7,29.83,WNW,300,5.8,5.8,80,0.00,OVC,,0.43,WeatherDisplay:10.37,2013-06-08 13:42:00,
2013-06-08 09:47:00,58.8,52.7,29.83,WNW,300,5.8,5.8,80,0.00,OVC,,0.43,WeatherDisplay:10.37,2013-06-08 13:47:00,
2013-06-08 09:52:00,59.0,52.8,29.83,WNW,300,5.8,5.8,80,0.00,OVC,,0.43,WeatherDisplay:10.37,2013-06-08 13:52:00,
2013-06-08 09:57:00,59.2,53.0,29.83,WNW,300,5.8,5.8,80,0.00,OVC,,0.43,WeatherDisplay:10.37,2013-06-08 13:57:00,
2013-06-08 10:02:00,59.2,54.0,29.86,WNW,300,0.0,0.0,83,0.00,OVC,,0.43,WeatherDisplay:10.37,2013-06-08 14:02:00,
2013-06-08 10:07:00,59.2,54.0,29.86,WNW,300,0.0,0.0,83,0.00,OVC,,0.43,WeatherDisplay:10.37,2013-06-08 14:07:00,
2013-06-08 10:12:00,59.4,54.2,29.86,WNW,300,0.0,0.0,83,0.00,OVC,,0.43,WeatherDisplay:10.37,2013-06-08 14:12:00,
2013-06-08 10:18:00,59.5,54.4,29.86,WNW,300,0.0,0.0,83,0.00,OVC,,0.43,WeatherDisplay:10.37,2013-06-08 14:18:00,
2013-06-08 10:23:00,59.7,54.5,29.86,WNW,300,0.0,0.0,83,0.00,OVC,,0.43,WeatherDisplay:10.37,2013-06-08 14:23:00,
2013-06-08 10:28:00,59.9,54.7,29.86,WNW,300,0.0,0.0,83,0.00,OVC,,0.43,WeatherDisplay:10.37,2013-06-08 14:28:00,
2013-06-08 10:33:00,60.1,54.9,29.86,WNW,300,0.0,0.0,83,0.00,OVC,,0.43,WeatherDisplay:10.37,2013-06-08 14:33:00,
2013-06-08 10:38:00,60.1,54.9,29.86,WNW,300,0.0,0.0,83,0.00,OVC,,0.43,WeatherDisplay:10.37,2013-06-08 14:38:00,
2013-06-08 10:43:00,60.3,55.1,29.86,WNW,300,0.0,0.0,83,0.00,OVC,,0.43,WeatherDisplay:10.37,2013-06-08 14:43:00,
2013-06-08 10:48:00,60.4,55.3,29.86,WNW,300,0.0,0.0,83,0.00,OVC,,0.43,WeatherDisplay:10.37,2013-06-08 14:48:00,
2013-06-08 10:53:00,60.4,55.3,29.86,WNW,300,0.0,0.0,83,0.00,OVC,,0.43,WeatherDisplay:10.37,2013-06-08 14:53:00,
2013-06-08 10:58:00,60.6,55.4,29.86,WNW,300,0.0,0.0,83,0.00,OVC,,0.43,WeatherDisplay:10.37,2013-06-08 14:58:00,
2013-06-08 11:03:00,60.8,55.6,29.86,WNW,300,0.0,0.0,83,0.00,OVC,,0.43,WeatherDisplay:10.37,2013-06-08 15:03:00,
2013-06-08 11:08:00,61.0,55.8,29.86,WNW,300,0.0,0.0,83,0.00,OVC,,0.43,WeatherDisplay:10.37,2013-06-08 15:08:00,
2013-06-08 11:13:00,61.0,55.8,29.86,WNW,300,0.0,0.0,83,0.00,OVC,,0.43,WeatherDisplay:10.37,2013-06-08 15:13:00,
2013-06-08 11:18:00,61.2,53.9,29.86,WNW,300,0.0,0.0,77,0.00,OVC,,0.43,WeatherDisplay:10.37,2013-06-08 15:18:00,
2013-06-08 11:23:00,61.3,54.1,29.86,WNW,300,0.0,0.0,77,0.00,OVC,,0.43,WeatherDisplay:10.37,2013-06-08 15:23:00,
2013-06-08 11:28:00,61.5,54.2,29.86,WNW,300,0.0,0.0,77,0.00,OVC,,0.43,WeatherDisplay:10.37,2013-06-08 15:28:00,
2013-06-08 11:33:00,61.5,54.2,29.89,WNW,300,0.0,0.0,77,0.00,OVC,,0.43,WeatherDisplay:10.37,2013-06-08 15:33:00,
2013-06-08 11:38:00,61.5,54.2,29.89,WNW,300,0.0,0.0,77,0.00,OVC,,0.43,WeatherDisplay:10.37,2013-06-08 15:38:00,
2013-06-08 11:43:00,61.5,54.2,29.89,WNW,300,0.0,0.0,77,0.00,OVC,,0.43,WeatherDisplay:10.37,2013-06-08 15:43:00,
2013-06-08 11:48:00,61.7,54.4,29.89,WNW,300,0.0,0.0,77,0.00,OVC,,0.43,WeatherDisplay:10.37,2013-06-08 15:48:00,
2013-06-08 11:53:00,61.9,54.6,29.89,WNW,300,0.0,0.0,77,0.00,OVC,,0.43,WeatherDisplay:10.37,2013-06-08 15:53:00,
2013-06-08 11:58:00,61.9,54.6,29.89,WNW,300,0.0,0.0,77,0.00,OVC,,0.43,WeatherDisplay:10.37,2013-06-08 15:58:00,
2013-06-08 12:03:00,61.9,54.6,29.89,WNW,300,0.0,0.0,77,0.00,OVC,,0.43,WeatherDisplay:10.37,2013-06-08 16:03:00,
2013-06-08 12:08:00,62.2,54.9,29.89,WNW,300,0.0,0.0,77,0.00,OVC,,0.43,WeatherDisplay:10.37,2013-06-08 16:08:00,
2013-06-08 12:13:00,62.2,54.9,29.89,WNW,300,0.0,0.0,77,0.00,OVC,,0.43,WeatherDisplay:10.37,2013-06-08 16:13:00,
2013-06-08 12:18:00,62.2,54.9,29.89,WNW,300,0.0,0.0,77,0.00,OVC,,0.43,WeatherDisplay:10.37,2013-06-08 16:18:00,
2013-06-08 12:23:00,62.4,55.1,29.89,WNW,300,0.0,0.0,77,0.00,OVC,,0.43,WeatherDisplay:10.37,2013-06-08 16:23:00,
2013-06-08 12:28:00,62.4,55.1,29.89,WNW,300,0.0,0.0,77,0.00,OVC,,0.43,WeatherDisplay:10.37,2013-06-08 16:28:00,
2013-06-08 12:33:00,62.6,55.3,29.89,WNW,300,0.0,0.0,77,0.00,OVC,,0.43,WeatherDisplay:10.37,2013-06-08 16:33:00,
2013-06-08 12:38:00,62.6,55.3,29.89,WNW,300,0.0,0.0,77,0.00,OVC,,0.43,WeatherDisplay:10.37,2013-06-08 16:38:00,
2013-06-08 12:43:00,62.6,55.3,29.89,WNW,300,0.0,0.0,77,0.00,OVC,,0.43,WeatherDisplay:10.37,2013-06-08 16:43:00,
2013-06-08 12:48:00,62.6,53.4,29.89,West,260,11.5,11.5,72,0.00,OVC,,0.43,WeatherDisplay:10.37,2013-06-08 16:48:00,
2013-06-08 12:53:00,62.8,53.6,29.89,West,260,11.5,11.5,72,0.00,OVC,,0.43,WeatherDisplay:10.37,2013-06-08 16:53:00,
2013-06-08 12:58:00,62.8,53.6,29.89,West,260,11.5,11.5,72,0.00,OVC,,0.43,WeatherDisplay:10.37,2013-06-08 16:58:00,
2013-06-08 13:03:00,62.8,53.6,29.89,West,260,11.5,11.5,72,0.00,OVC,,0.43,WeatherDisplay:10.37,2013-06-08 17:03:00,
2013-06-08 13:08:00,62.8,53.6,29.89,West,260,11.5,11.5,72,0.00,OVC,,0.43,WeatherDisplay:10.37,2013-06-08 17:08:00,
2013-06-08 13:13:00,63.0,53.8,29.89,West,260,11.5,11.5,72,0.00,OVC,,0.43,WeatherDisplay:10.37,2013-06-08 17:13:00,
2013-06-08 13:18:00,63.0,51.8,29.89,West,270,11.5,24.2,67,0.00,OVC,,0.43,WeatherDisplay:10.37,2013-06-08 17:18:00,
2013-06-08 13:23:00,63.0,51.8,29.89,West,270,11.5,24.2,67,0.00,OVC,,0.43,WeatherDisplay:10.37,2013-06-08 17:23:00,
2013-06-08 13:28:00,63.1,52.0,29.89,West,270,11.5,24.2,67,0.00,OVC,,0.43,WeatherDisplay:10.37,2013-06-08 17:28:00,
2013-06-08 13:33:00,63.1,50.8,29.89,West,280,16.1,27.6,64,0.00,BKN,,0.43,WeatherDisplay:10.37,2013-06-08 17:33:00,
2013-06-08 13:38:00,63.1,50.8,29.89,West,280,16.1,27.6,64,0.00,BKN,,0.43,WeatherDisplay:10.37,2013-06-08 17:38:00,
2013-06-08 13:43:00,63.3,50.9,29.89,West,280,16.1,27.6,64,0.00,BKN,,0.43,WeatherDisplay:10.37,2013-06-08 17:43:00,
2013-06-08 13:48:00,63.5,51.1,29.89,West,280,16.1,27.6,64,0.00,BKN,,0.43,WeatherDisplay:10.37,2013-06-08 17:48:00,
2013-06-08 13:53:00,63.7,51.3,29.89,West,280,16.1,27.6,64,0.00,BKN,,0.43,WeatherDisplay:10.37,2013-06-08 17:53:00,
2013-06-08 13:58:00,63.7,51.3,29.89,West,280,16.1,27.6,64,0.00,BKN,,0.43,WeatherDisplay:10.37,2013-06-08 17:58:00,
2013-06-08 14:03:00,63.7,51.7,29.89,West,260,15.0,24.2,65,0.00,BKN,,0.43,WeatherDisplay:10.37,2013-06-08 18:03:00,
2013-06-08 14:08:00,63.9,51.9,29.89,West,260,15.0,24.2,65,0.00,BKN,,0.43,WeatherDisplay:10.37,2013-06-08 18:08:00,
2013-06-08 14:13:00,63.9,51.9,29.89,West,260,15.0,24.2,65,0.00,BKN,,0.43,WeatherDisplay:10.37,2013-06-08 18:13:00,
2013-06-08 14:18:00,64.0,52.0,29.89,West,260,15.0,24.2,65,0.00,BKN,,0.43,WeatherDisplay:10.37,2013-06-08 18:18:00,
2013-06-08 14:23:00,64.2,52.2,29.89,West,260,15.0,24.2,65,0.00,BKN,,0.43,WeatherDisplay:10.37,2013-06-08 18:23:00,
2013-06-08 14:28:00,64.4,52.4,29.89,West,260,15.0,24.2,65,0.00,BKN,,0.43,WeatherDisplay:10.37,2013-06-08 18:28:00,
2013-06-08 14:33:00,64.4,52.4,29.89,West,260,15.0,24.2,65,0.00,BKN,,0.43,WeatherDisplay:10.37,2013-06-08 18:33:00,
2013-06-08 14:46:00,64.8,52.7,29.89,West,260,15.0,24.2,65,0.00,BKN,,0.43,WeatherDisplay:10.37,2013-06-08 18:46:00,
2013-06-08 14:51:00,64.8,52.7,29.92,West,260,15.0,24.2,65,0.00,RA,,0.43,WeatherDisplay:10.37,2013-06-08 18:51:00,
2013-06-08 14:56:00,64.8,52.7,29.92,West,260,15.0,24.2,65,0.00,RA,,0.43,WeatherDisplay:10.37,2013-06-08 18:56:00,
2013-06-08 15:01:00,64.9,52.9,29.92,WNW,300,11.5,24.2,65,0.00,BKN,,0.43,WeatherDisplay:10.37,2013-06-08 19:01:00,
2013-06-08 15:06:00,65.3,53.2,29.92,WNW,300,11.5,11.5,65,0.00,BKN,,0.43,WeatherDisplay:10.37,2013-06-08 19:06:00,
2013-06-08 15:11:00,65.5,53.4,29.92,WNW,300,11.5,11.5,65,0.00,BKN,,0.43,WeatherDisplay:10.37,2013-06-08 19:11:00,
2013-06-08 15:16:00,65.5,53.4,29.92,WNW,300,11.5,11.5,65,0.00,BKN,,0.43,WeatherDisplay:10.37,2013-06-08 19:16:00,
2013-06-08 15:21:00,65.7,53.6,29.92,WNW,300,11.5,11.5,65,0.00,BKN,,0.43,WeatherDisplay:10.37,2013-06-08 19:21:00,
2013-06-08 15:26:00,65.7,53.6,29.92,WNW,300,11.5,11.5,65,0.00,BKN,,0.43,WeatherDisplay:10.37,2013-06-08 19:26:00,
2013-06-08 15:32:00,65.7,53.6,29.92,WNW,300,11.5,11.5,65,0.00,BKN,,0.43,WeatherDisplay:10.37,2013-06-08 19:32:00,
2013-06-08 15:37:00,65.7,53.6,29.92,WNW,300,11.5,11.5,65,0.00,BKN,,0.43,WeatherDisplay:10.37,2013-06-08 19:37:00,
2013-06-08 15:42:00,65.8,53.7,29.92,WNW,300,11.5,11.5,65,0.00,BKN,,0.43,WeatherDisplay:10.37,2013-06-08 19:42:00,
2013-06-08 15:47:00,65.8,53.7,29.92,WNW,300,11.5,11.5,65,0.00,BKN,,0.43,WeatherDisplay:10.37,2013-06-08 19:47:00,
2013-06-08 15:52:00,66.0,53.9,29.92,WNW,300,11.5,11.5,65,0.00,BKN,,0.43,WeatherDisplay:10.37,2013-06-08 19:52:00,
2013-06-08 15:57:00,66.0,53.9,29.92,WNW,300,11.5,11.5,65,0.00,BKN,,0.43,WeatherDisplay:10.37,2013-06-08 19:57:00,
2013-06-08 16:02:00,65.8,53.7,29.92,WNW,300,11.5,11.5,65,0.00,BKN,,0.43,WeatherDisplay:10.37,2013-06-08 20:02:00,
2013-06-08 16:07:00,65.7,53.6,29.92,WNW,300,11.5,11.5,65,0.00,BKN,,0.43,WeatherDisplay:10.37,2013-06-08 20:07:00,
2013-06-08 16:12:00,65.7,53.6,29.92,WNW,300,11.5,11.5,65,0.00,BKN,,0.43,WeatherDisplay:10.37,2013-06-08 20:12:00,
2013-06-08 16:17:00,65.5,52.5,29.95,West,280,11.5,11.5,63,0.00,BKN,,0.43,WeatherDisplay:10.37,2013-06-08 20:17:00,
2013-06-08 16:22:00,65.5,52.5,29.95,West,280,11.5,11.5,63,0.00,BKN,,0.43,WeatherDisplay:10.37,2013-06-08 20:22:00,
2013-06-08 16:27:00,65.5,52.5,29.95,West,280,11.5,11.5,63,0.00,BKN,,0.43,WeatherDisplay:10.37,2013-06-08 20:27:00,
2013-06-08 16:32:00,65.5,52.5,29.95,West,280,11.5,11.5,63,0.00,BKN,,0.43,WeatherDisplay:10.37,2013-06-08 20:32:00,
2013-06-08 16:37:00,65.3,52.4,29.95,West,280,11.5,11.5,63,0.00,BKN,,0.43,WeatherDisplay:10.37,2013-06-08 20:37:00,
2013-06-08 16:42:00,65.3,52.4,29.95,West,280,11.5,11.5,63,0.00,BKN,,0.43,WeatherDisplay:10.37,2013-06-08 20:42:00,
2013-06-08 16:47:00,65.3,52.4,29.95,West,280,11.5,11.5,63,0.00,BKN,,0.43,WeatherDisplay:10.37,2013-06-08 20:47:00,
2013-06-08 16:52:00,65.1,52.2,29.95,West,280,11.5,11.5,63,0.00,BKN,,0.43,WeatherDisplay:10.37,2013-06-08 20:52:00,
2013-06-08 16:57:00,65.1,52.2,29.95,West,280,11.5,11.5,63,0.00,BKN,,0.43,WeatherDisplay:10.37,2013-06-08 20:57:00,
2013-06-08 17:02:00,65.1,52.2,29.95,West,280,11.5,11.5,63,0.00,BKN,,0.43,WeatherDisplay:10.37,2013-06-08 21:02:00,
2013-06-08 17:07:00,64.9,52.0,29.95,West,280,11.5,11.5,63,0.00,BKN,,0.43,WeatherDisplay:10.37,2013-06-08 21:07:00,
2013-06-08 17:12:00,64.9,52.0,29.95,West,280,11.5,11.5,63,0.00,BKN,,0.43,WeatherDisplay:10.37,2013-06-08 21:12:00,
2013-06-08 17:17:00,64.8,53.5,29.95,WNW,290,15.0,23.0,67,0.00,OVC,,0.43,WeatherDisplay:10.37,2013-06-08 21:17:00,
2013-06-08 17:22:00,64.8,53.5,29.95,WNW,290,15.0,23.0,67,0.00,OVC,,0.43,WeatherDisplay:10.37,2013-06-08 21:22:00,
2013-06-08 17:27:00,64.8,53.5,29.95,WNW,290,15.0,23.0,67,0.00,OVC,,0.43,WeatherDisplay:10.37,2013-06-08 21:27:00,
2013-06-08 17:32:00,64.6,53.4,29.95,WNW,290,15.0,23.0,67,0.00,OVC,,0.43,WeatherDisplay:10.37,2013-06-08 21:32:00,
2013-06-08 17:37:00,64.6,53.4,29.95,WNW,290,15.0,23.0,67,0.00,OVC,,0.43,WeatherDisplay:10.37,2013-06-08 21:37:00,
2013-06-08 17:42:00,64.6,53.4,29.95,WNW,290,15.0,23.0,67,0.00,OVC,,0.43,WeatherDisplay:10.37,2013-06-08 21:42:00,
2013-06-08 17:47:00,64.6,53.4,29.95,WNW,290,15.0,23.0,67,0.00,OVC,,0.43,WeatherDisplay:10.37,2013-06-08 21:47:00,
2013-06-08 17:52:00,64.6,53.4,29.95,WNW,290,15.0,23.0,67,0.00,OVC,,0.43,WeatherDisplay:10.37,2013-06-08 21:52:00,
2013-06-08 17:57:00,64.6,53.4,29.95,WNW,290,15.0,23.0,67,0.00,OVC,,0.43,WeatherDisplay:10.37,2013-06-08 21:57:00,
2013-06-08 18:02:00,64.4,53.2,29.95,WNW,290,15.0,23.0,67,0.00,OVC,,0.43,WeatherDisplay:10.37,2013-06-08 22:02:00,
2013-06-08 18:07:00,64.4,53.2,29.95,WNW,290,15.0,23.0,67,0.00,OVC,,0.43,WeatherDisplay:10.37,2013-06-08 22:07:00,
2013-06-08 18:12:00,64.4,53.2,29.95,WNW,290,15.0,23.0,67,0.00,OVC,,0.43,WeatherDisplay:10.37,2013-06-08 22:12:00,
2013-06-08 18:17:00,64.4,54.4,29.98,NW,310,5.8,5.8,70,0.00,BKN,,0.43,WeatherDisplay:10.37,2013-06-08 22:17:00,
2013-06-08 18:22:00,64.4,54.4,29.98,NW,310,5.8,5.8,70,0.00,BKN,,0.43,WeatherDisplay:10.37,2013-06-08 22:22:00,
2013-06-08 18:27:00,64.4,54.4,29.98,NW,310,5.8,5.8,70,0.00,BKN,,0.43,WeatherDisplay:10.37,2013-06-08 22:27:00,
2013-06-08 18:32:00,64.4,54.4,29.98,NW,310,5.8,5.8,70,0.00,BKN,,0.43,WeatherDisplay:10.37,2013-06-08 22:32:00,
2013-06-08 18:37:00,64.4,54.4,29.98,NW,310,5.8,5.8,70,0.00,BKN,,0.43,WeatherDisplay:10.37,2013-06-08 22:37:00,
2013-06-08 18:42:00,64.4,54.4,29.98,NW,310,5.8,5.8,70,0.00,BKN,,0.43,WeatherDisplay:10.37,2013-06-08 22:42:00,
2013-06-08 18:47:00,64.4,54.4,29.98,NW,310,5.8,5.8,70,0.00,BKN,,0.43,WeatherDisplay:10.37,2013-06-08 22:47:00,
2013-06-08 18:52:00,64.4,54.4,29.98,NW,310,5.8,5.8,70,0.00,BKN,,0.43,WeatherDisplay:10.37,2013-06-08 22:52:00,
2013-06-08 18:57:00,64.4,54.4,29.98,NW,310,5.8,5.8,70,0.00,BKN,,0.43,WeatherDisplay:10.37,2013-06-08 22:57:00,
2013-06-08 19:02:00,64.4,54.4,29.98,NW,310,5.8,5.8,70,0.00,BKN,,0.43,WeatherDisplay:10.37,2013-06-08 23:02:00,
2013-06-08 19:07:00,64.4,54.4,29.98,NW,310,5.8,5.8,70,0.00,BKN,,0.43,WeatherDisplay:10.37,2013-06-08 23:07:00,
2013-06-08 19:12:00,64.6,54.6,29.98,NW,310,5.8,5.8,70,0.00,BKN,,0.43,WeatherDisplay:10.37,2013-06-08 23:12:00,
2013-06-08 19:17:00,64.6,54.6,29.98,West,280,6.9,6.9,70,0.00,BKN,,0.43,WeatherDisplay:10.37,2013-06-08 23:17:00,
2013-06-08 19:22:00,64.4,54.4,29.98,West,280,6.9,6.9,70,0.00,BKN,,0.43,WeatherDisplay:10.37,2013-06-08 23:22:00,
2013-06-08 19:27:00,64.4,54.4,29.98,West,280,6.9,6.9,70,0.00,BKN,,0.43,WeatherDisplay:10.37,2013-06-08 23:27:00,
2013-06-08 19:32:00,64.4,54.4,30.00,West,280,6.9,6.9,70,0.00,BKN,,0.43,WeatherDisplay:10.37,2013-06-08 23:32:00,
2013-06-08 19:37:00,64.4,54.4,30.00,West,280,6.9,6.9,70,0.00,BKN,,0.43,WeatherDisplay:10.37,2013-06-08 23:37:00,
2013-06-08 19:42:00,64.4,54.4,30.00,West,280,6.9,6.9,70,0.00,BKN,,0.43,WeatherDisplay:10.37,2013-06-08 23:42:00,
2013-06-08 19:47:00,64.4,54.4,30.00,West,280,6.9,6.9,70,0.00,BKN,,0.43,WeatherDisplay:10.37,2013-06-08 23:47:00,
2013-06-08 19:52:00,64.4,54.4,30.00,West,280,6.9,6.9,70,0.00,BKN,,0.43,WeatherDisplay:10.37,2013-06-08 23:52:00,
2013-06-08 19:57:00,64.4,54.4,30.00,West,280,6.9,6.9,70,0.00,BKN,,0.43,WeatherDisplay:10.37,2013-06-08 23:57:00,
2013-06-08 20:02:00,64.2,54.2,30.00,West,280,6.9,6.9,70,0.00,BKN,,0.43,WeatherDisplay:10.37,2013-06-09 00:02:00,
2013-06-08 20:07:00,64.2,54.2,30.00,West,280,6.9,6.9,70,0.00,BKN,,0.43,WeatherDisplay:10.37,2013-06-09 00:07:00,
2013-06-08 20:12:00,64.0,54.1,30.00,West,280,6.9,6.9,70,0.00,BKN,,0.43,WeatherDisplay:10.37,2013-06-09 00:12:00,
2013-06-08 20:17:00,63.9,53.9,30.00,West,260,13.8,13.8,70,0.00,BKN,,0.43,WeatherDisplay:10.37,2013-06-09 00:17:00,
2013-06-08 20:22:00,63.9,53.9,30.00,West,260,13.8,13.8,70,0.00,BKN,,0.43,WeatherDisplay:10.37,2013-06-09 00:22:00,
2013-06-08 20:27:00,63.7,53.7,30.00,West,260,13.8,13.8,70,0.00,BKN,,0.43,WeatherDisplay:10.37,2013-06-09 00:27:00,
2013-06-08 20:32:00,63.7,53.7,30.00,West,260,13.8,13.8,70,0.00,BKN,,0.43,WeatherDisplay:10.37,2013-06-09 00:32:00,
2013-06-08 20:38:00,63.5,53.5,30.00,West,260,13.8,13.8,70,0.00,BKN,,0.43,WeatherDisplay:10.37,2013-06-09 00:38:00,
2013-06-08 20:43:00,63.5,53.5,30.00,West,260,13.8,13.8,70,0.00,BKN,,0.43,WeatherDisplay:10.37,2013-06-09 00:43:00,
2013-06-08 20:48:00,63.5,53.5,30.00,West,260,13.8,13.8,70,0.00,BKN,,0.43,WeatherDisplay:10.37,2013-06-09 00:48:00,
2013-06-08 20:53:00,63.3,53.4,30.00,West,260,13.8,13.8,70,0.00,BKN,,0.43,WeatherDisplay:10.37,2013-06-09 00:53:00,
2013-06-08 20:58:00,63.3,53.4,30.00,West,260,13.8,13.8,70,0.00,BKN,,0.43,WeatherDisplay:10.37,2013-06-09 00:58:00,
2013-06-08 21:03:00,63.1,53.2,30.00,West,260,13.8,13.8,70,0.00,BKN,,0.43,WeatherDisplay:10.37,2013-06-09 01:03:00,
2013-06-08 21:08:00,63.1,53.2,30.00,West,260,13.8,13.8,70,0.00,BKN,,0.43,WeatherDisplay:10.37,2013-06-09 01:08:00,
2013-06-08 21:13:00,63.1,53.2,30.00,West,260,13.8,13.8,70,0.00,BKN,,0.43,WeatherDisplay:10.37,2013-06-09 01:13:00,
2013-06-08 21:18:00,63.1,53.2,30.03,West,270,9.2,9.2,70,0.00,BKN,,0.43,WeatherDisplay:10.37,2013-06-09 01:18:00,
2013-06-08 21:23:00,63.0,53.0,30.03,West,270,9.2,9.2,70,0.00,BKN,,0.43,WeatherDisplay:10.37,2013-06-09 01:23:00,
2013-06-08 21:28:00,63.0,53.0,30.03,West,270,9.2,9.2,70,0.00,BKN,,0.43,WeatherDisplay:10.37,2013-06-09 01:28:00,
2013-06-08 21:33:00,63.0,53.0,30.03,West,270,9.2,9.2,70,0.00,BKN,,0.43,WeatherDisplay:10.37,2013-06-09 01:33:00,
2013-06-08 21:38:00,63.0,53.0,30.03,West,270,9.2,9.2,70,0.00,BKN,,0.43,WeatherDisplay:10.37,2013-06-09 01:38:00,
2013-06-08 21:43:00,63.0,53.0,30.03,West,270,9.2,9.2,70,0.00,BKN,,0.43,WeatherDisplay:10.37,2013-06-09 01:43:00,
2013-06-08 21:48:00,62.8,52.8,30.03,West,270,9.2,9.2,70,0.00,BKN,,0.43,WeatherDisplay:10.37,2013-06-09 01:48:00,
2013-06-08 21:53:00,62.8,52.8,30.03,West,270,9.2,9.2,70,0.00,BKN,,0.43,WeatherDisplay:10.37,2013-06-09 01:53:00,
2013-06-08 21:58:00,62.6,52.7,30.03,West,270,9.2,9.2,70,0.00,BKN,,0.43,WeatherDisplay:10.37,2013-06-09 01:58:00,
2013-06-08 22:03:00,62.6,52.3,30.03,WNW,290,10.4,10.4,69,0.00,BKN,,0.43,WeatherDisplay:10.37,2013-06-09 02:03:00,
2013-06-08 22:08:00,62.4,52.1,30.03,WNW,290,10.4,10.4,69,0.00,BKN,,0.43,WeatherDisplay:10.37,2013-06-09 02:08:00,
2013-06-08 22:13:00,62.2,51.9,30.03,WNW,290,10.4,10.4,69,0.00,BKN,,0.43,WeatherDisplay:10.37,2013-06-09 02:13:00,
2013-06-08 22:18:00,62.1,51.8,30.03,WNW,290,10.4,10.4,69,0.00,BKN,,0.43,WeatherDisplay:10.37,2013-06-09 02:18:00,
2013-06-08 22:23:00,62.1,51.8,30.03,WNW,290,10.4,10.4,69,0.00,BKN,,0.43,WeatherDisplay:10.37,2013-06-09 02:23:00,
2013-06-08 22:28:00,61.9,51.6,30.03,WNW,290,10.4,10.4,69,0.00,BKN,,0.43,WeatherDisplay:10.37,2013-06-09 02:28:00,
2013-06-08 22:33:00,61.7,51.4,30.03,WNW,290,10.4,10.4,69,0.00,BKN,,0.43,WeatherDisplay:10.37,2013-06-09 02:33:00,
2013-06-08 22:38:00,61.5,51.3,30.03,WNW,290,10.4,10.4,69,0.00,BKN,,0.43,WeatherDisplay:10.37,2013-06-09 02:38:00,
2013-06-08 22:43:00,61.5,51.3,30.03,WNW,290,10.4,10.4,69,0.00,BKN,,0.43,WeatherDisplay:10.37,2013-06-09 02:43:00,
2013-06-08 22:48:00,61.3,51.1,30.03,WNW,290,10.4,10.4,69,0.00,BKN,,0.43,WeatherDisplay:10.37,2013-06-09 02:48:00,
2013-06-08 22:53:00,61.0,50.7,30.03,WNW,290,10.4,10.4,69,0.00,BKN,,0.43,WeatherDisplay:10.37,2013-06-09 02:53:00,
2013-06-08 22:58:00,61.0,50.7,30.03,WNW,290,10.4,10.4,69,0.00,BKN,,0.43,WeatherDisplay:10.37,2013-06-09 02:58:00,
2013-06-08 23:03:00,60.8,50.6,30.06,WNW,290,10.4,10.4,69,0.00,BKN,,0.43,WeatherDisplay:10.37,2013-06-09 03:03:00,
2013-06-08 23:08:00,60.6,50.4,30.06,WNW,290,10.4,10.4,69,0.00,BKN,,0.43,WeatherDisplay:10.37,2013-06-09 03:08:00,
2013-06-08 23:13:00,60.4,50.2,30.06,WNW,290,10.4,10.4,69,0.00,BKN,,0.43,WeatherDisplay:10.37,2013-06-09 03:13:00,
2013-06-08 23:18:00,60.4,54.2,30.06,West,270,6.9,6.9,80,0.00,SCT,,0.43,WeatherDisplay:10.37,2013-06-09 03:18:00,
2013-06-08 23:23:00,60.3,54.1,30.06,West,270,6.9,6.9,80,0.00,SCT,,0.43,WeatherDisplay:10.37,2013-06-09 03:23:00,
2013-06-08 23:28:00,60.3,54.1,30.06,West,270,6.9,6.9,80,0.00,SCT,,0.43,WeatherDisplay:10.37,2013-06-09 03:28:00,
2013-06-08 23:33:00,60.3,54.1,30.06,West,270,6.9,6.9,80,0.00,SCT,,0.43,WeatherDisplay:10.37,2013-06-09 03:33:00,
2013-06-08 23:38:00,60.1,53.9,30.06,West,270,6.9,6.9,80,0.00,SCT,,0.43,WeatherDisplay:10.37,2013-06-09 03:38:00,
2013-06-08 23:43:00,60.1,53.9,30.06,West,270,6.9,6.9,80,0.00,SCT,,0.43,WeatherDisplay:10.37,2013-06-09 03:43:00,
2013-06-08 23:48:00,59.9,53.7,30.06,West,270,6.9,6.9,80,0.00,SCT,,0.43,WeatherDisplay:10.37,2013-06-09 03:48:00,
2013-06-08 23:53:00,59.9,53.7,30.06,West,270,6.9,6.9,80,0.00,SCT,,0.43,WeatherDisplay:10.37,2013-06-09 03:53:00,
2013-06-08 23:58:00,59.7,53.5,30.06,West,270,6.9,6.9,80,0.00,SCT,,0.43,WeatherDisplay:10.37,2013-06-09 03:58:00,